Regional Weather Roundup
Issued by NWS

Home | Current Version | Previous Version | Text Only | Print | Product List | Glossary On
Versions: 1 2 3 4 5 6 7 8 9 10 11 12 13 14 15 16 17 18 19 20 21 22 23 24 25 26 27 28 29 30 31 32 33 34 35 36 37 38 39 40 41 42 43 44 45 46 47 48 49 50
000
ASUS45 KABQ 240710
RWRNM
NEW MEXICO REGIONAL WEATHER ROUNDUP
NATIONAL WEATHER SERVICE ALBUQUERQUE NM
100 AM MDT SUN JUL 24 2016

NOTE: "FAIR" MEANS FEW OR NO CLOUDS BELOW 12,000 FEET AGL WITH NO
       SIGNIFICANT WEATHER OR OBSTRUCTIONS TO VISION.

      THIS PRODUCT IS RELEASED AS TWO VERSIONS.  ONE VERSION NEAR
      THE TOP OF THE HOUR CONTAINING PRELIMINARY DATA FROM ALBUQUERQUE
      AND OTHER STATIONS.  A FINAL VERSION WITH ADDITIONAL DATA IS
      ISSUED ABOUT 10 MINUTES AFTER THE HOUR.

NMZ501-503-504-510>518-240800-
NORTHWEST PLATEAU/NORTHCENTRAL MOUNTAINS

CITY           SKY/WX    TMP DP  RH WIND       PRES   REMARKS
FARMINGTON     FAIR      75  44  33 CALM      30.13R
LOS ALAMOS     FAIR      74  44  34 W10       30.31S
SANTA FE       FAIR      69  56  62 CALM      30.23S
TAOS           FAIR      66  39  37 NE6       30.31R
ANGEL FIRE     CLOUDY    60  50  69 NE12      30.39R

$$
NMZ402-403-502-505>509-240800-
WESTCENTRAL MOUNTAINS/SOUTHWEST MOUNTAINS

CITY           SKY/WX    TMP DP  RH WIND       PRES   REMARKS
GALLUP         FAIR      66  52  60 CALM      30.23S
GRANTS         FAIR      72  47  40 W12G23    30.26F
SILVER CITY    FAIR      71  49  45 NW12      30.10F

$$
NMZ407-409-411-412-240800-
SOUTHERN DESERTS

CITY           SKY/WX    TMP DP  RH WIND       PRES   REMARKS
LORDSBURG      FAIR      77  46  33 W9        30.01F
DEMING         FAIR      79  48  33 CALM      30.01R
LAS CRUCES     FAIR      85  41  21 N10G16    30.03S
ALAMOGORDO     FAIR      82  39  21 NW6       30.00S
T OR C         FAIR      80  45  28 N6        30.07R

$$
NMZ519>523-240800-
CENTRAL VALLEYS/CENTRAL HIGHLANDS

CITY           SKY/WX    TMP DP  RH WIND       PRES   REMARKS
ALBUQUERQUE    CLOUDY    81  49  32 W12       30.15S
MORIARTY ARPT  FAIR      70  48  46 CALM      30.23S
CLINES CORNERS FAIR      71  46  40 E5        30.29F
BELEN          FAIR      79  46  30 NW10G17   30.14S
SOCORRO        FAIR      83  44  25 NW17G25   30.08F

$$
NMZ524>526-539-540-240800-
SOUTHCENTRAL MOUNTAINS

CITY           SKY/WX    TMP DP  RH WIND       PRES   REMARKS
RUIDOSO          N/A     70  39  32 SW6       30.27F

$$
NMZ527>531-240800-
NORTHEAST HIGHLANDS/NORTHEAST PLAINS

CITY           SKY/WX    TMP DP  RH WIND       PRES   REMARKS
LAS VEGAS      FAIR      69  48  47 N7        30.27F
RATON          FAIR      71  47  42 N16       30.22S
CLAYTON        FAIR      71  57  61 NW9       30.11R

$$
NMZ532>537-240800-
EASTCENTRAL PLAINS

CITY           SKY/WX    TMP DP  RH WIND       PRES   REMARKS
TUCUMCARI      FAIR      82  48  30 SW14      30.04R
CANNON AFB     FAIR      72  55  54 SE7       30.07R
CLOVIS AIRPORT FAIR      72  52  49 S8        30.07S

$$
NMZ028-029-538-240800-
SOUTHEAST PLAINS

CITY           SKY/WX    TMP DP  RH WIND       PRES   REMARKS
ROSWELL        FAIR      78  44  29 S6        29.99S
ARTESIA        FAIR      79  48  34 S7        29.99S
CARLSBAD       FAIR      83  55  38 SE9       29.97S
HOBBS          FAIR      81  54  39 SE9       30.04R


$$




USA.gov is the U.S. government's official web portal to all federal, state and local government web resources and services.